STARLINK-1807, 46706

Orbit data source: Space-Track

STARLINK-1807, 46706 is a payload satellite owned by SpaceX/Seattle (US) in LEO that was launched on Sun, 18 Oct 2020 UTC via an FALCON 9 launch vehicle from the Air Force Eastern Test Range (AFETR). Payloads include a variety of satellites, spacecraft, and rockets equipped with specific instruments for various scientific and technological missions. These include communications satellites like Starlink; space stations such as the ISS; scientific satellites like the Hubble; Earth observation satellites from companies like Planet Labs, Umbra, and HawkEye 360; GPS; miniature CubeSats for education and research; and military/defense satellites.

Loading next visibility...
STARLINK-1807 details
Identifier
46706, 2020-073AN
Orbit
LEO
Last TLE update1 day ago
Origin
Flag of USSpaceX/Seattle (US)
ManufacturerSpaceX/Seattle
MissionOperational Commercial Communications
Bus & MotorSTARLINK, Unknown motor
Mass260 kg wet, ~248 kg dry
Launch date (UTC)
2020-10-18 (4 years ago)
Launch vehicle
FALCON 9
Launch site
Air Force Eastern Test Range (AFETR)
Object type
Payload
Rocket body
Debris
Shape & HBRBox + 1 Pan, 8.86 m
Radar Cross Section13.562 m², Large (>1 m²)

Expand to show TLE details & history

TLE from 1 day ago
0 STARLINK-1807
1 46706U 20073AN  24360.48890488 -.00003337  00000-0 -20537-3 0  9997
2 46706  53.0549  53.2636 0001600 107.6277 252.4887 15.06379726230932
Epoch: 2024-12-25T11:44Z
Definitive object data (Epoch: 2024-12-25T11:44:01.381Z)
Latitude-0.00001°
Longitude142.77591°
Altitude548.486 km
Speed7.589 km/s
True Right ascension03h 33m 03s
True Declination0° 00' 00"
Sunlit
Object was in full shadow at TLE epoch
Visualization TLE readout
Latitude13.94888°
Longitude148.99886°
Altitude547.49 km
Speed7.591 km/s
Apparent Right ascension01h 57m 23s
Apparent Declination-14° 26' 28"
Sunlit
Object is in full shadow
Visualization observer readout
Local Sidereal Time11:03:09
Azimuth291.216° WNW
Elevation-44.29°
Doppler factor1
Orbital elements
Apogee altitude548.652 km
Perigee altitude546.436 km
Semi-major axis6,925.681 km
Eccentricity0.00016
Inclination53.0549°
RAAN53.2636°
Arg. of periapsis107.6277°
True anomaly252.47122°
Mean anomaly252.4887°
Eccentric anomaly252.47996°
Mean motion3.76573 °/min
BSTAR-0.00020537
Orbital period95.6 mins
Loading maneuver chart data...
Loading historical data...
Loading historical data...
Loading historical data...
Loading historical data...
Loading historical data...
Loading historical data...
Loading historical data...

STARLINK-1807 Visibility forecast

Observer location: undefined°, undefined

Span
Click to sort rows by Start time (UTC) header in descending order
Start Az.
Max El. time (UTC)
Max El. Az.
Max El.
End time (UTC)
End Az.
6 mins2024-12-26 12:04:45.833Z330.806° NNW2024-12-26 12:07:45.833Z28.083° NE26.128°2024-12-26 12:10:45.833Z85.042° E
6 mins2024-12-26 13:44:45.833Z293.089° NW2024-12-26 13:47:45.833Z207.495° SW36.071°2024-12-26 13:50:45.833Z153.449° SSE
6 mins2024-12-27 05:17:45.833Z184.607° SSW2024-12-27 05:20:45.833Z117.498° SE26.643°2024-12-27 05:23:45.833Z69.903° E
5 mins2024-12-27 06:57:45.833Z273.83° WNW2024-12-27 06:59:45.833Z329.161° NNW32.381°2024-12-27 07:02:45.833Z33.314° NE
|